Location: Владивосток
(43.1151°N, 131.8856°E)
Time: 09:06:43
(UTC+10:00)

DUCHIFAT 1 - Visible Passes

Search period start: 19 April 2024 00:00
Search period end: 29 April 2024 00:00
Orbit: 543 x 559 km, 98.1° (Epoch: 18 April)

Date Brightness Start Highest point End Pass type
(mag) Time Alt. Az. Time Alt. Az. Time Alt. Az.
19 Apr ? 05:08:07 10° NE 05:11:34 27° E 05:15:00 10° SSE visible
20 Apr ? 05:04:12 10° NE 05:07:31 24° E 05:10:48 10° SSE visible
21 Apr ? 05:00:16 10° NE 05:03:25 22° E 05:06:33 10° SSE visible
22 Apr ? 04:56:18 10° NE 04:59:16 20° E 05:02:13 10° SE visible
23 Apr ? 04:52:20 10° NE 04:55:05 18° E 04:57:48 10° SE visible
24 Apr ? 04:48:22 10° NE 04:50:51 16° E 04:53:18 10° SE visible
25 Apr ? 04:44:24 10° ENE 04:46:34 14° E 04:48:42 10° SE visible
26 Apr ? 04:40:30 10° ENE 04:42:14 12° E 04:43:57 10° ESE visible
27 Apr ? 04:36:44 10° ENE 04:37:51 11° E 04:38:58 10° ESE visible
